Regional Weather Roundup
Issued by NWS

Home | Current Version | Previous Version | Graphics & Text | Print | Product List | Glossary On
Versions: 1 2 3 4 5 6 7 8 9 10 11 12 13 14 15 16 17 18 19 20 21 22 23 24 25 26 27 28 29 30 31 32 33 34 35 36 37 38 39 40 41 42 43 44 45 46 47 48 49 50
000
ASUS43 KMPX 222001
RWRMN
WEATHER ROUNDUP FOR MINNESOTA
NATIONAL WEATHER SERVICE TWIN CITIES/CHANHASSEN MN
300 PM CDT THU JUN 22 2017


NOTE: "FAIR" INDICATES FEW OR NO CLOUDS BELOW 12,000 FEET WITH NO
SIGNIFICANT WEATHER AND/OR OBSTRUCTIONS TO VISIBILITY. N/A MEANS
CURRENT SKY AND/OR WEATHER CONDITIONS ARE NOT AVAILABLE.

MNZ060>063-068>070-222100-
   Twin Cities Metro

CITY           SKY/WX    TMP DP  RH WIND       PRES   REMARKS
TWIN CITIES    LGT RAIN  69  65  86 N8        29.74R
ST PAUL        LGT RAIN  68  67  96 N5        29.73S
CRYSTAL        LGT RAIN  65  61  87 NW6       29.74R
BLAINE         CLOUDY    66  66 100 NW3       29.73S
LAKEVILLE      LGT RAIN  70  70 100 CALM      29.73S
EDEN PRAIRIE   LGT RAIN  68  65  90 N8        29.73R
SOUTH ST PAUL  LGT RAIN  69  68  94 CALM      29.72S
$$
MNZ001>005-007-008-013>017-022>024-027-028-222100-
   Northwest Minnesota

CITY           SKY/WX    TMP DP  RH WIND       PRES   REMARKS
HALLOCK        MOSUNNY   73  36  25 W28G35    29.62S
ROSEAU           N/A     70  48  46 W12G18    29.61F
WARROAD        SUNNY     72  48  43 W18G26    29.61F
CROOKSTON      MOSUNNY   75  45  33 W16G31    29.68S
FOSSTON        MOSUNNY   72  46  40 W17G30    29.69S
DETROIT LAKES  SUNNY     73  45  35 W13       29.73F
MOORHEAD       SUNNY     79  46  31 W21G30    29.71S
PARK RAPIDS    SUNNY     78  45  30 W17       29.71S
MAHNOMEN       MOCLDY    72  50  45 W24G31    29.70S
$$
MNZ006-009>011-018-025>026-222100-
   North Central Minnesota

CITY           SKY/WX    TMP DP  RH WIND       PRES   REMARKS
BAUDETTE       SUNNY     73  42  32 SW16G25   29.61F
FLAG ISLAND    MOSUNNY   70  41  35 SW13      29.57F
INTL FALLS     MOSUNNY   74  44  34 W12       29.61F
WASKISH        CLOUDY    73  55  53 W17       29.65S
BIG FORK       SUNNY     75  46  35 SW14G21   29.66F
LONGVILLE      MOSUNNY   73  48  40 CALM      29.70S
GRAND RAPIDS   SUNNY     74  47  38 W7        29.71S
CRANE LAKE     SUNNY     72  41  33 SW7       29.64F
ORR            SUNNY     73  37  27 W10G20    29.62F
COOK           MOSUNNY   73  43  33 SW14G20   29.66S
WALKER         FAIR      74  46  37 W16       29.69F
$$
MNZ012-019>021-037-222100-
   Northeast Minnesota

CITY           SKY/WX    TMP DP  RH WIND       PRES   REMARKS
DULUTH         MOSUNNY   74  50  42 W8G18     29.67F
ELY            CLOUDY    72  39  30 W9        29.66S
HIBBING        SUNNY     73  44  35 VRB7      29.68F
EVELETH        CLOUDY    73  33  23 W13G18    29.69S
DULUTH HARBOR  PTSUNNY   77  54  44 SW6       29.65F
TWO HARBORS    CLOUDY    79  55  44 W8        29.64F
SILVER BAY     MOSUNNY   75  54  46 W3        29.63
GRAND MARAIS     N/A     57  48  72 W13       29.63F
G MARAIS ARPRT PTSUNNY   68  48  49 S9        29.67R
$$
MNZ029>031-032-039>041-046>048-054>057-064-222100-
   West Central Minnesota

CITY           SKY/WX    TMP DP  RH WIND       PRES   REMARKS
FERGUS FALLS   SUNNY     73  48  40 W9G18     29.72S
WHEATON        SUNNY     75  41  29 CALM      29.78R
MORRIS         SUNNY     73  61  64 W8        29.77R
ALEXANDRIA     MOSUNNY   74  49  41 NW7       29.77S
ELBOW LAKE     FAIR      73  50  44 NW8       29.77R
WADENA         SUNNY     73  50  43 NW8       29.73S
GLENWOOD       SUNNY     70  59  68 SW10      29.79S
APPLETON       PTSUNNY   70  55  60 S6        29.79S
BENSON         MOSUNNY   70  55  60 W5        29.81R
ORTONVILLE     SUNNY     72  57  60 SW6       29.79S
MADISON        CLOUDY    70  55  60 W3        29.80S
WILLMAR        FAIR      61  61 100 W5        29.80S
$$
MNZ033>034-036-042>043-049>051-058-059-222100-
   Central Minnesota

CITY           SKY/WX    TMP DP  RH WIND       PRES   REMARKS
ST CLOUD       CLOUDY    64  60  87 W8        29.75S
PAYNESVILLE    CLOUDY    65  55  69 W7        29.80R
AITKIN         SUNNY     73  48  40 W8G17     29.71R
PINE RIVER     MOSUNNY   73  54  49 S9        29.75S
BRAINERD       MOSUNNY   75  43  31 W10       29.73R
STAPLES        SUNNY     75  46  35 W10       29.74R
LITTLE FALLS   CLOUDY    72  52  49 S8        29.75S
LITCHFIELD     CLOUDY    66  59  77 CALM      29.78R
BUFFALO        LGT RAIN  64  60  88 CALM      29.76R
MAPLE LAKE     PTSUNNY   66  63  91 W3        29.75R
HUTCHINSON     LGT RAIN  64  61  93 W5        29.77S
$$
MNZ037-044-045-052-053-222100-
   East Central Minnesota

CITY           SKY/WX    TMP DP  RH WIND       PRES   REMARKS
PRINCETON      CLOUDY    66  63  88 W7        29.75F
MORA           CLOUDY    64  54  68 W7        29.75R
CAMBRIDGE      CLOUDY    66  59  77 W5        29.71F
RUSH CITY      CLOUDY    66  61  82 SW6       29.75R
MOOSE LAKE     MOSUNNY   73  52  46 W8        29.69R
HINCKLEY       FAIR      70  59  68 W6        29.71R
CLOQUET        MOSUNNY   75  45  33 W12       29.68F
MCGREGOR       SUNNY     73  48  40 W9        29.72R
$$
MNZ071>073-080-081-089-090-097-098-222100-
   Southwest Minnesota

CITY           SKY/WX    TMP DP  RH WIND       PRES   REMARKS
MONTEVIDEO     CLOUDY    68  66  94 NW6       29.80R
GRANITE FALLS  CLOUDY    68  58  69 NW6       29.81S
CANBY          CLOUDY    68  52  55 CALM      29.81F
MARSHALL       CLOUDY    66  60  81 NW9       29.79S
REDWOOD FALLS  LGT RAIN  64  60  87 NW6       29.78R
OLIVIA         CLOUDY    64  59  82 NW7       29.77S
PIPESTONE      CLOUDY    66  59  77 NE10      29.79R
WINDOM         CLOUDY    70  61  73 N13       29.76S
WORTHINGTON    CLOUDY    71  65  81 N13       29.77R
JACKSON        CLOUDY    73  63  68 CALM      29.76R
TRACY          CLOUDY    66  61  85 N10       29.79R
SLAYTON        CLOUDY    65  59  79 N13       29.79R
$$
MNZ065>067-074>077-082>085-091>093-222100-
   South Central Minnesota

CITY           SKY/WX    TMP DP  RH WIND       PRES   REMARKS
MANKATO        CLOUDY    73  62  68 CALM      29.75R
NEW ULM        CLOUDY    70  63  78 N10       29.75R
ST JAMES       CLOUDY    73  66  78 N6        29.75R
FAIRMONT       PTSUNNY   77  66  68 E8        29.73R
GLENCOE        CLOUDY    66  65  99 NW8       29.77R
FARIBAULT      LGT RAIN  70  64  83 CALM      29.74R
OWATONNA       CLOUDY    72  64  78 NE5       29.73R
WASECA         LGT RAIN  70  64  83 N6        29.75R
ALBERT LEA     CLOUDY    77  68  73 S15       29.70S
$$
MNZ078>079-086>088-094>096-222100-
   Southeast Minnesota

CITY           SKY/WX    TMP DP  RH WIND       PRES   REMARKS
ROCHESTER      CLOUDY    68  67  96 S10       29.73F
RED WING       LGT RAIN  72  66  83 CALM      29.72R
STANTON        CLOUDY    71  66  83 CALM      29.73R
DODGE CENTER   TSTM      70  64  83 E9G16     29.71R
WINONA         LGT RAIN  70  68  94 S5        29.72F
AUSTIN         CLOUDY    72  64  78 S5        29.72F
PRESTON        CLOUDY    68  65  91 E6        29.73F
$$
ABBREVIATIONS USED IN REMARKS
   TC - TEMPERATURES IN CELSIUS
  WCI - WIND CHILL INDEX
   HX - HEAT INDEX
  VSB - VISIBILITY
$$




USA.gov is the U.S. government's official web portal to all federal, state and local government web resources and services.